Theta_e
303 293 291 290 294 296 297 298 297 298 297 296 295 294 293 292 293 296 297 295 296 293 292 292 293 293 295 296 298 299 299 298 298 298 298 298 299 300 299 300 300 300 299 299 300 299 299 299 299 297 297 296 296 295 294 295 294 294 294 293 292 293 293 293 292 291 290 289 288 288 288 288 288 289 289 289 289 289 288 289 289 289 288 288 288 288
304 293 293 296 297 298 298 299 299 298 298 296 295 293 293 292 291 295 296 294 295 292 290 293 293 293 295 297 298 299 298 298 298 298 299 299 300 300 300 299 300 300 300 300 298 298 298 298 297 296 296 295 294 294 294 294 294 294 294 293 293 293 293 292 292 292 290 290 289 289 288 288 289 288 288 287 287 288 290 289 289 288 288 288 287 287
293 292 296 298 300 299 299 298 298 297 296 295 293 292 290 291 294 296 295 293 294 293 289 292 291 293 295 296 298 298 298 299 300 300 300 300 299 300 300 299 299 298 298 298 297 298 298 297 297 295 295 295 295 294 294 294 293 293 293 293 293 293 292 292 292 291 290 290 290 289 289 289 288 289 289 288 288 289 288 288 288 288 288 288 287 287
290 294 298 300 300 298 297 297 296 295 296 293 291 288 288 292 291 288 293 293 292 291 289 290 290 292 295 297 297 299 299 300 301 301 301 301 300 300 300 300 299 298 297 296 296 296 296 296 295 294 294 294 294 293 293 293 293 293 293 293 293 293 292 292 292 292 291 291 290 290 290 290 289 288 289 289 289 288 288 287 288 287 287 287 287 286
293 297 300 300 299 298 295 296 294 292 292 293 293 291 290 291 293 292 292 291 293 292 293 289 288 289 292 292 294 297 299 299 300 300 300 300 301 302 302 301 301 299 298 297 296 295 295 294 294 294 294 294 293 293 293 293 293 293 293 293 293 293 292 292 292 291 291 291 290 290 289 288 288 288 286 286 285 287 287 287 286 286 287 287 286 286
295 299 300 297 297 297 296 293 294 294 291 291 294 294 293 294 293 293 295 294 290 289 290 291 284 285 290 293 294 296 294 295 297 297 298 298 299 300 299 300 301 301 299 298 297 296 295 295 294 293 293 293 293 293 293 293 293 293 293 293 293 292 292 291 291 291 291 290 289 288 286 285 285 284 284 284 285 285 286 286 286 287 287 287 286 285
296 297 298 297 295 294 295 293 294 296 291 288 290 296 296 294 294 293 293 292 284 282 291 293 282 283 288 290 292 293 292 294 295 296 297 298 299 299 298 299 300 301 299 298 298 296 294 294 293 293 293 292 292 293 293 292 292 292 292 293 293 292 292 292 291 291 291 290 289 288 287 287 286 285 285 286 286 286 286 286 286 286 286 286 286 285
296 293 294 296 295 294 292 292 295 295 291 288 292 294 295 294 293 293 293 291 288 291 292 291 289 283 284 289 292 294 292 293 293 295 296 298 298 298 298 298 299 301 300 299 298 297 295 294 294 293 293 293 293 293 293 292 292 292 292 292 292 292 292 291 291 291 291 289 288 287 287 287 286 285 285 286 286 287 286 286 286 285 285 286 285 285
296 294 294 294 292 290 291 294 297 297 292 291 292 295 293 294 294 293 290 287 286 284 283 285 290 282 283 287 293 294 290 291 292 293 295 296 297 298 299 298 299 300 301 300 298 297 295 295 294 294 293 293 293 293 293 292 292 292 292 292 292 292 291 291 291 290 290 290 288 288 287 286 286 286 286 286 287 287 287 285 285 285 285 285 285 284
296 295 297 297 292 290 294 290 292 298 293 294 294 294 293 293 291 292 286 286 284 282 281 284 289 281 283 289 288 290 291 291 292 294 296 296 297 298 299 298 300 299 299 300 300 298 296 296 295 295 294 293 293 293 293 292 292 291 292 291 291 291 291 291 290 290 290 289 289 287 287 286 285 286 286 286 286 285 285 284 284 284 284 284 284 284
295 294 296 296 294 296 290 290 292 291 294 294 294 294 291 291 286 287 286 284 282 279 282 286 289 286 281 287 287 288 289 292 293 293 295 295 296 296 298 300 300 300 300 299 299 298 297 296 295 295 294 293 293 292 292 292 291 291 291 291 290 291 291 291 290 290 289 289 288 287 287 286 286 286 286 285 284 284 283 283 283 283 283 283 283 283
293 293 292 294 297 293 294 291 292 292 293 294 289 287 287 285 285 283 283 283 277 279 283 286 288 288 279 281 289 293 294 295 294 293 294 295 296 297 298 298 301 300 299 299 298 297 296 295 294 294 293 293 292 292 291 291 291 291 291 291 290 290 290 290 290 289 289 288 288 287 287 286 286 287 286 285 284 284 283 283 283 283 282 282 282 282
289 291 293 295 295 296 291 292 290 292 291 292 287 286 281 280 282 278 279 275 276 279 282 285 288 284 284 289 291 292 292 294 295 295 295 296 296 296 298 299 301 299 299 299 297 297 296 295 294 293 293 292 292 291 291 291 291 291 290 290 290 289 290 290 290 289 289 288 288 287 287 287 287 287 286 285 284 284 283 283 282 282 282 281 281 281
288 292 293 294 292 295 295 288 285 283 286 288 286 283 280 277 276 275 276 279 280 283 284 284 288 284 288 289 294 293 292 295 296 296 296 296 296 296 298 300 300 298 298 298 297 297 296 295 294 294 293 292 292 291 291 291 291 291 291 290 290 290 290 289 289 289 288 288 288 288 287 287 287 286 286 285 285 284 284 283 283 282 282 281 281 280
282 285 290 292 287 294 294 293 292 290 285 288 289 287 285 282 278 273 276 276 278 281 282 284 280 278 278 284 294 297 297 295 296 297 296 295 295 297 297 299 299 297 296 298 297 297 297 296 295 294 293 293 292 291 291 291 291 290 290 290 289 289 289 289 289 289 288 288 288 287 287 287 287 287 286 285 285 284 283 283 283 282 282 281 281 281
287 287 291 296 294 294 292 295 296 292 286 286 289 290 284 283 285 281 283 281 279 279 279 278 279 281 285 291 293 297 298 297 296 297 295 295 296 295 298 299 298 298 298 297 297 297 296 296 295 294 293 293 292 291 291 291 291 290 290 290 290 289 289 289 288 288 288 288 287 287 286 287 287 286 286 285 285 284 284 283 283 282 281 280 280 280
286 285 293 293 293 291 287 291 295 295 283 285 288 283 286 290 287 282 283 284 280 279 280 283 283 287 291 293 294 294 293 294 295 295 294 294 297 296 297 298 297 298 297 297 297 297 296 296 295 295 294 293 292 292 291 291 291 291 290 290 289 289 289 289 288 288 288 287 287 286 286 286 286 286 285 284 283 283 283 282 281 281 280 280 279 280
285 287 290 290 288 288 287 288 291 290 292 287 281 284 291 291 288 284 277 280 278 276 280 283 281 283 282 282 289 292 292 293 294 294 295 296 297 295 296 298 298 298 298 298 298 298 297 297 296 296 295 294 293 292 292 291 291 291 291 290 289 289 289 289 288 288 287 287 286 286 286 286 285 285 284 283 283 282 282 281 280 280 279 279 279 279
293 285 288 288 287 289 290 291 290 292 291 286 284 290 285 280 278 282 281 273 274 275 277 281 282 283 285 286 289 287 290 292 293 294 295 295 296 294 294 296 297 297 297 297 297 298 297 297 296 296 295 295 294 293 292 292 291 291 290 290 290 289 289 289 288 288 287 287 287 286 285 285 284 284 283 283 282 281 281 280 279 279 278 278 278 278
290 286 286 286 288 289 287 287 281 284 289 290 289 284 287 282 281 279 281 280 279 277 277 278 282 281 289 289 290 290 291 292 293 293 294 295 295 295 295 296 296 298 299 298 297 297 298 297 296 296 295 294 294 293 292 291 291 290 290 290 289 289 289 288 287 287 286 286 286 285 285 284 284 283 282 282 281 280 280 279 279 278 277 277 278 277
288 288 283 285 283 288 281 284 283 287 284 283 283 280 284 282 284 282 282 280 280 276 277 277 278 283 287 291 291 291 293 293 292 293 294 295 295 295 295 296 296 297 298 299 298 298 297 297 296 295 295 295 293 292 291 291 290 290 289 289 289 288 288 287 287 286 286 286 285 284 284 283 283 282 282 280 280 280 279 278 278 278 277 277 277 276
286 285 285 283 281 283 287 289 289 291 291 288 287 285 286 283 279 278 278 284 281 280 277 278 278 285 291 294 292 291 292 293 293 294 294 294 295 295 294 294 295 295 297 299 299 298 298 296 296 295 293 290 291 290 290 291 289 288 288 289 288 288 287 287 286 286 285 285 285 284 283 282 282 281 281 280 279 279 278 278 278 277 277 276 276 276
292 286 287 284 286 288 290 292 290 290 290 290 289 286 289 286 285 282 278 281 281 282 285 284 281 284 291 291 292 292 294 295 294 294 294 294 293 293 294 294 295 296 297 299 299 299 298 297 297 296 294 292 292 292 290 289 289 289 288 288 287 287 287 287 286 286 285 284 284 283 282 282 281 280 280 279 278 278 277 277 277 277 276 276 275 276
293 287 284 286 289 288 287 286 287 288 289 287 286 286 286 285 286 285 284 284 283 284 282 282 279 283 291 290 290 291 292 292 293 293 293 294 294 294 293 294 295 296 297 297 297 296 298 296 294 290 289 291 290 289 289 289 289 288 287 287 287 287 287 286 285 285 284 284 283 282 281 281 280 279 279 278 278 277 277 277 276 276 275 275 275 275
286 286 286 283 282 282 286 286 284 284 285 282 283 286 289 289 288 287 286 284 282 284 285 282 277 283 291 290 290 292 291 291 291 292 292 292 290 292 293 294 296 297 297 295 295 295 294 291 291 292 291 291 290 290 289 288 288 287 287 287 287 287 286 285 285 284 284 283 282 282 281 280 279 279 278 278 277 276 276 276 275 275 275 274 274 274
288 286 285 280 277 275 275 277 279 281 278 282 283 285 287 287 287 285 283 284 281 284 285 282 282 288 293 292 290 289 290 290 291 292 292 292 293 294 292 292 295 295 296 296 295 293 293 293 292 290 289 289 289 289 288 288 287 287 287 286 287 286 285 285 284 284 283 282 281 281 280 279 279 278 277 277 276 276 275 275 275 274 274 274 274 273
285 285 287 286 283 281 283 285 287 285 282 279 282 284 285 286 287 287 286 284 281 284 283 284 285 286 288 291 292 293 294 293 294 294 290 291 291 291 291 293 294 295 295 294 294 295 294 290 289 290 289 289 289 288 288 287 287 286 286 286 285 285 285 284 284 283 282 282 281 280 279 279 278 278 277 276 276 275 275 274 274 274 273 274 273 273
285 283 285 287 286 287 288 288 289 290 286 286 284 283 284 285 286 285 284 282 287 284 280 286 288 286 287 290 292 292 293 294 295 295 296 296 296 296 293 293 294 293 292 292 292 293 292 292 291 290 290 289 289 288 287 287 287 286 286 285 285 285 284 284 283 282 282 281 280 280 279 278 278 277 276 276 275 275 274 274 273 273 273 273 272 272
285 283 286 286 285 287 289 289 290 289 288 287 287 287 286 286 285 284 285 287 287 283 281 287 288 286 288 291 293 294 294 294 294 295 296 297 296 296 293 291 291 292 291 291 292 292 292 292 292 291 290 290 289 288 287 286 285 285 284 284 284 284 284 283 282 281 281 280 279 279 278 278 277 276 276 275 274 274 273 273 273 273 273 273 273 272
286 283 286 286 284 286 286 287 288 287 287 287 287 287 288 287 286 286 286 287 287 285 287 288 288 288 290 291 293 294 296 295 296 297 297 296 295 295 294 292 293 292 290 291 292 293 293 293 292 292 292 291 289 288 287 285 284 284 284 284 284 284 283 282 282 281 280 279 279 278 277 277 276 275 275 274 273 273 273 273 273 273 273 272 272 272
287 282 288 285 283 283 285 287 287 286 286 284 286 287 287 288 287 287 287 287 287 286 287 287 287 286 292 294 294 295 296 297 296 295 295 296 296 295 294 293 293 292 292 291 290 291 291 291 291 291 291 291 291 290 288 286 285 284 283 283 283 283 282 281 281 280 279 279 278 277 276 275 275 274 274 273 273 272 272 272 272 272 272 271 271 271
287 283 288 285 281 280 285 285 285 286 285 284 284 285 285 285 284 286 285 287 286 285 286 286 284 285 291 294 295 295 295 294 294 294 295 295 296 295 293 292 291 292 293 293 292 291 290 289 290 290 291 291 291 291 289 286 284 283 283 283 282 282 280 281 280 279 279 278 277 276 276 275 274 273 273 273 272 272 272 272 271 271 270 270 269 269
286 284 284 283 280 279 285 285 284 284 283 280 281 285 286 286 287 288 289 289 289 289 285 283 284 290 292 294 292 293 294 294 294 294 295 295 295 295 293 291 291 292 294 294 293 290 289 290 291 291 291 291 292 291 289 288 285 283 283 282 282 280 279 280 279 279 278 278 277 276 275 274 273 273 272 272 272 272 272 271 270 269 268 268 268 269
286 285 285 286 280 280 285 284 285 280 274 276 288 290 289 286 287 285 285 288 290 290 288 290 290 292 293 293 292 292 293 294 294 295 296 295 295 295 294 293 292 294 296 295 293 290 291 291 290 291 291 292 292 292 291 287 286 285 284 282 280 279 279 279 278 278 277 277 276 275 274 274 273 272 272 272 271 271 270 269 268 268 268 268 268 268
285 285 284 286 282 280 284 283 278 273 275 286 291 291 292 291 290 288 289 290 290 291 291 290 291 292 293 294 294 294 295 296 296 295 295 296 295 295 295 295 295 294 294 295 294 292 292 291 291 291 290 290 291 290 287 285 285 282 281 280 279 279 278 278 278 277 277 276 275 275 274 273 273 272 271 270 269 269 268 268 268 267 268 268 268 268
286 285 284 283 284 283 281 279 274 274 284 287 290 291 292 291 290 288 286 289 291 291 291 290 291 293 293 294 295 296 295 295 296 295 295 296 297 296 295 295 296 296 295 295 295 294 293 291 291 291 291 290 288 286 286 285 283 282 281 280 279 278 278 278 277 277 276 275 275 274 274 273 272 271 269 269 268 268 267 267 267 267 268 267 268 268
289 287 285 280 285 277 279 279 279 285 283 284 286 287 288 286 286 285 281 285 291 292 292 291 291 292 293 294 294 295 295 294 292 293 297 297 297 297 296 296 297 296 296 296 296 294 294 292 290 291 289 285 286 285 285 283 282 281 279 278 278 277 277 277 276 276 276 275 274 273 273 272 271 269 268 267 267 267 267 267 267 267 267 267 268 268
291 286 286 283 280 285 279 278 279 278 275 281 289 291 294 293 293 292 288 285 292 292 293 292 291 292 292 293 293 294 294 290 288 291 296 297 297 297 297 297 295 295 296 296 295 292 292 292 290 288 288 285 284 285 284 282 282 280 278 277 277 277 277 277 276 276 275 274 274 273 272 272 270 269 267 267 266 266 267 267 267 267 267 267 267 267
290 290 288 284 281 284 280 277 276 276 279 287 288 292 293 294 293 292 286 281 290 293 294 294 292 293 292 292 292 292 289 286 287 291 295 296 296 297 295 294 293 294 295 295 295 295 294 293 291 287 284 284 284 283 282 281 281 279 278 277 277 277 276 276 276 275 275 274 273 272 271 270 270 268 267 267 267 267 267 267 266 267 267 267 267 267
286 286 285 282 280 282 281 279 277 282 281 288 290 290 293 294 294 287 278 279 292 293 294 294 293 293 293 292 292 290 288 287 288 292 296 296 296 295 292 292 292 292 293 293 293 293 292 289 287 285 284 284 286 282 281 280 280 279 278 277 276 276 276 276 276 276 274 273 271 271 270 270 269 268 267 267 266 267 267 267 266 266 266 266 266 266
282 282 284 279 281 281 282 279 282 283 288 290 291 292 292 291 287 280 275 285 293 292 293 294 294 294 293 292 291 289 290 293 292 294 294 295 294 294 291 289 290 292 293 293 292 291 287 286 288 288 287 287 283 281 280 280 279 278 278 276 276 276 277 276 275 273 272 271 270 269 269 268 268 267 266 266 266 266 266 266 266 266 265 265 265 265
281 282 281 283 280 280 280 279 279 283 288 292 291 293 292 286 279 278 288 293 291 290 289 289 289 289 289 288 288 288 289 291 291 292 291 291 291 291 291 291 290 289 288 287 286 286 284 283 284 284 283 282 281 280 280 280 279 279 277 276 275 277 276 274 273 272 270 269 269 268 267 267 267 266 266 266 265 264 265 265 265 265 264 264 264 264
281 281 277 280 282 282 281 278 277 274 286 292 292 290 289 285 284 288 288 289 290 288 289 288 289 289 289 288 289 289 290 290 290 290 290 291 290 290 289 288 288 288 288 288 287 284 284 283 282 282 282 280 279 279 280 281 280 279 277 276 277 275 274 272 271 270 269 268 267 266 266 265 265 265 265 264 265 264 264 264 264 264 263 264 264 263
284 281 281 282 283 278 278 276 276 283 284 288 286 282 284 286 290 290 289 288 290 289 288 288 288 288 288 288 287 288 289 289 290 290 291 290 290 291 291 290 289 288 287 285 284 284 284 284 284 283 281 277 277 278 279 280 280 278 276 277 274 273 271 270 269 268 267 266 265 265 264 264 263 263 264 264 264 264 263 263 262 262 262 263 263 262
288 277 279 275 280 278 277 280 283 286 286 286 286 285 287 289 292 290 289 289 287 287 287 285 286 287 287 286 286 286 286 287 287 289 288 289 289 290 290 290 289 288 287 286 286 284 283 284 286 284 280 277 277 277 278 279 279 278 277 276 272 272 270 269 268 267 266 265 264 263 262 262 261 262 262 263 264 263 262 262 262 261 262 262 263 263
282 284 284 281 279 284 282 283 286 284 284 283 284 287 289 289 290 288 286 285 286 286 285 284 285 285 285 285 284 285 285 285 285 286 286 286 287 288 289 290 290 289 288 284 282 281 282 282 281 282 283 279 277 277 278 278 279 278 278 273 271 271 270 268 267 266 265 264 263 262 261 261 260 261 262 262 263 263 263 262 262 262 262 262 263 264
281 283 280 276 277 276 271 283 281 281 282 282 283 287 289 288 287 286 284 284 284 283 283 284 284 284 284 284 284 284 284 285 284 285 285 286 286 287 288 288 289 290 289 289 289 286 283 281 281 281 281 281 278 277 278 278 278 279 275 272 272 271 269 267 267 265 264 263 262 261 261 260 260 260 261 262 263 263 262 263 263 263 263 263 264 264
274 281 276 276 275 273 273 279 280 281 282 283 285 286 286 286 286 285 284 283 283 283 283 283 283 283 284 283 283 283 283 284 284 284 285 286 286 287 287 288 288 289 290 290 289 287 284 282 282 282 282 281 282 277 278 278 278 278 274 272 271 270 268 267 266 264 263 262 261 260 260 260 261 260 260 261 262 262 262 262 264 264 263 264 264 264
277 279 270 275 274 275 278 278 280 280 281 283 284 286 283 283 282 281 282 282 282 282 283 284 284 283 283 283 284 284 284 284 285 285 285 286 287 287 288 289 289 290 290 290 289 286 284 283 282 282 283 284 282 278 277 277 277 275 272 271 270 268 267 266 265 263 262 261 260 260 261 261 260 261 260 261 262 263 263 263 264 264 265 266 266 265
276 272 276 275 271 272 273 276 280 274 274 279 279 280 281 281 281 281 282 282 282 282 283 283 283 284 284 284 284 285 284 285 285 286 285 286 286 287 288 289 290 289 289 290 289 288 286 284 283 283 283 284 282 277 277 276 276 273 272 270 268 268 266 265 264 262 261 261 260 260 261 261 260 260 261 261 262 262 263 266 268 267 265 265 268 270
275 275 276 272 273 273 278 279 279 278 277 278 280 281 281 281 281 279 279 280 280 281 281 281 280 280 281 282 283 283 283 283 283 284 284 284 285 286 287 287 287 287 288 288 288 289 287 286 284 283 282 283 281 277 276 275 274 271 269 268 268 267 267 265 263 262 261 261 261 261 261 261 260 261 261 262 262 262 262 264 266 269 269 269 270 271
Wind_Speed
5 6 6 9 14 11 10 13 14 13 11 12 9 8 11 9 10 11 12 5 9 4 11 14 14 12 15 12 11 11 9 9 10 12 12 12 14 15 12 12 14 13 15 7 11 12 13 12 11 9 10 10 11 11 12 13 13 13 14 13 14 11 12 11 11 10 10 10 8 6 8 9 7 8 6 6 6 7 6 6 7 6 6 6 6 5
0 6 10 16 17 11 9 10 11 13 13 14 11 9 11 6 13 13 11 3 5 6 4 9 11 13 14 11 11 10 8 14 14 14 15 17 18 15 13 14 14 13 3 7 7 9 9 10 10 9 9 10 14 11 13 15 15 13 14 15 13 11 12 11 12 11 11 10 11 11 10 8 9 9 9 8 7 7 6 7 7 7 6 6 6 6
7 12 14 17 13 8 10 10 9 8 8 7 6 6 7 9 11 12 6 3 0 3 7 7 11 13 14 14 14 13 14 15 13 16 17 16 16 15 13 12 11 6 6 7 9 9 11 10 11 10 10 11 14 14 15 13 13 13 13 13 12 12 12 11 12 11 11 9 8 8 7 9 7 5 5 6 6 6 6 7 7 7 7 7 6 6
9 10 16 13 11 11 11 7 5 6 7 7 7 5 11 9 6 8 2 2 3 5 2 4 9 9 11 14 19 19 19 18 18 19 18 15 16 17 18 14 7 7 9 10 10 11 10 11 11 10 10 11 11 11 11 12 15 12 12 12 13 13 12 11 11 11 9 9 7 6 7 7 8 7 7 7 7 7 7 7 7 7 7 7 6 6
17 6 4 12 13 13 14 9 7 5 11 7 9 9 10 10 11 9 4 4 5 7 5 5 10 11 11 16 14 15 17 15 15 15 14 14 13 16 15 8 7 9 11 10 9 9 10 11 13 14 12 11 13 13 13 14 14 11 14 14 14 13 13 11 11 12 10 9 8 6 7 5 7 5 6 6 6 7 7 6 7 8 6 6 7 6
16 10 1 3 1 5 5 6 7 7 13 7 7 11 15 13 12 10 9 6 4 5 5 3 8 9 9 16 17 10 3 7 10 11 14 14 14 15 12 13 7 6 10 13 14 14 14 14 10 9 11 12 12 13 13 12 13 11 12 13 13 11 11 12 12 13 12 11 12 11 11 10 8 8 9 11 12 10 10 10 7 6 7 6 6 6
7 2 9 11 7 6 5 7 5 5 12 9 5 9 14 12 9 8 8 2 5 6 1 1 1 17 5 8 6 3 6 9 7 9 12 13 14 13 11 9 8 9 8 8 9 9 11 11 12 13 13 14 14 13 10 10 11 12 12 13 14 13 11 11 12 13 11 11 11 14 14 14 14 13 9 7 7 8 7 6 8 8 7 7 7 6
5 3 3 2 5 8 6 8 9 9 9 11 0 1 0 1 5 4 3 5 7 2 4 4 1 9 21 10 5 11 9 9 9 9 11 14 14 13 12 7 8 10 10 11 12 13 13 14 16 17 17 15 15 11 10 11 12 14 14 14 14 11 11 11 11 14 13 13 12 12 11 10 11 11 11 10 9 8 8 9 8 7 7 7 7 7
3 4 7 7 5 5 9 11 2 9 7 2 0 2 2 1 0 1 2 4 3 4 8 7 5 4 14 4 10 12 7 9 11 10 13 15 13 14 16 8 8 10 12 12 11 13 15 16 15 14 14 13 11 11 13 13 12 12 12 13 12 13 12 11 13 14 13 12 12 12 11 10 8 8 7 7 7 8 9 9 7 8 8 7 7 7
2 2 3 6 5 9 7 1 1 2 9 1 1 4 2 1 2 0 1 1 3 1 14 7 9 7 20 15 3 6 10 13 11 13 16 15 13 14 14 6 7 7 7 9 12 11 12 13 12 11 10 10 12 11 10 10 10 11 11 13 15 15 13 12 14 14 14 13 11 12 12 12 9 8 7 9 9 8 9 9 9 8 8 7 7 7
1 3 2 2 8 4 4 2 2 2 1 2 0 1 1 0 2 0 1 1 2 8 18 8 12 11 14 8 10 8 9 11 10 8 9 9 12 11 9 6 8 8 8 8 8 8 8 8 10 10 12 12 10 9 11 11 12 11 12 13 16 16 12 13 15 15 16 14 13 13 13 13 12 11 9 10 9 9 8 9 8 8 7 7 7 7
3 3 0 4 4 4 4 3 2 0 1 1 1 1 1 4 2 0 1 2 3 15 7 12 15 15 13 3 1 11 10 14 14 13 13 12 15 12 9 9 8 9 8 8 8 7 8 8 9 10 10 12 12 11 12 12 12 13 13 13 15 14 15 14 14 15 15 14 14 12 13 14 13 13 11 13 13 12 12 10 10 8 7 7 7 7
9 13 7 3 4 8 3 2 0 1 1 3 3 2 2 4 1 2 2 2 6 14 1 9 12 5 22 15 1 4 3 9 9 11 12 14 13 11 10 11 8 8 8 9 8 8 8 11 12 13 12 11 13 15 15 15 13 12 13 15 16 17 16 15 15 16 15 14 15 14 14 13 12 12 12 12 12 11 11 10 9 9 9 7 8 8
6 3 7 6 4 7 8 9 2 2 7 8 7 7 5 4 4 7 5 4 6 7 6 6 9 13 10 6 10 8 7 10 12 10 10 11 10 8 8 7 6 7 9 9 9 9 9 11 11 12 13 13 13 13 14 13 14 13 13 15 17 18 15 14 14 15 16 17 15 14 13 13 12 12 12 11 11 10 10 9 11 10 10 10 9 8
4 8 8 10 6 9 15 13 17 9 8 15 5 10 11 8 1 3 4 8 8 8 1 2 5 8 3 6 12 19 15 10 11 11 10 8 6 9 4 5 6 6 6 8 9 10 11 11 11 12 12 12 12 13 13 12 13 13 13 15 18 16 16 16 16 14 17 15 15 14 13 12 11 12 11 10 9 10 11 9 10 9 8 8 8 8
9 13 3 17 1 11 15 15 7 3 1 4 4 1 2 9 3 10 9 7 5 5 7 5 7 2 6 1 6 11 15 15 11 14 10 7 7 6 5 7 7 7 7 7 8 9 9 9 9 9 10 11 11 13 12 13 13 14 16 16 17 17 16 16 16 16 16 15 13 13 14 14 13 10 9 8 8 9 10 10 10 9 9 8 8 8
0 7 2 4 5 5 4 3 6 5 5 3 8 7 11 1 6 4 6 6 2 4 19 4 9 12 6 17 17 11 7 10 9 10 8 7 10 11 6 6 7 8 8 8 9 10 10 8 9 11 11 10 10 11 15 17 17 19 17 15 17 16 14 16 17 16 14 14 14 15 14 13 13 13 13 12 11 11 9 9 9 9 9 8 8 7
6 8 1 3 4 1 1 2 3 3 1 7 3 6 1 1 3 3 3 1 3 6 15 5 12 15 6 16 3 16 15 12 11 14 13 12 16 11 7 8 9 9 10 9 8 8 11 13 13 12 11 13 15 16 16 16 15 15 15 17 17 16 18 18 16 16 15 16 16 14 15 14 14 13 12 11 12 10 10 9 8 8 9 9 8 7
5 11 5 1 2 2 1 1 3 1 1 2 5 2 4 3 2 3 1 4 6 10 9 12 13 15 17 19 7 3 15 16 15 13 14 15 15 9 7 8 7 6 6 7 9 10 9 10 12 13 14 13 12 13 14 13 12 11 11 13 15 19 19 17 14 13 12 13 12 12 14 14 13 11 11 10 10 10 11 11 10 10 9 8 8 8
1 7 4 2 2 1 2 3 7 2 2 1 1 4 0 2 2 6 7 3 3 11 6 18 18 19 12 7 7 10 11 14 17 14 15 17 15 12 8 8 8 7 8 9 9 9 12 13 12 13 13 13 15 13 11 12 11 13 14 13 13 12 11 12 15 15 15 15 12 12 11 12 12 11 12 11 12 11 11 11 10 10 9 9 8 8
6 4 11 1 4 2 3 5 8 12 11 5 1 4 0 2 2 2 3 5 6 6 8 9 15 18 3 3 7 9 13 12 10 12 12 13 13 11 9 9 6 7 8 8 9 10 11 10 9 10 11 11 8 7 9 11 15 14 10 12 14 16 16 16 16 14 14 12 13 13 15 14 13 13 11 11 11 11 10 9 10 9 8 8 8 8
1 4 12 3 1 6 12 5 14 16 17 14 15 15 16 9 4 5 12 3 4 5 6 7 15 23 4 6 5 5 5 7 9 11 10 8 13 11 6 6 6 6 7 8 9 9 9 9 10 10 8 6 8 9 11 11 8 9 14 16 14 12 12 15 14 16 14 13 12 14 13 13 11 12 11 12 11 11 11 10 10 10 9 10 8 9
8 2 3 8 10 14 12 9 5 4 2 2 6 9 11 10 8 8 13 8 2 4 6 10 11 26 2 5 2 5 11 15 13 13 13 10 7 4 4 6 6 7 8 9 8 9 10 10 12 13 14 13 14 14 12 10 12 15 14 12 12 15 16 15 14 12 11 12 13 14 12 12 12 12 13 13 11 11 11 10 9 9 10 9 8 8
5 1 3 10 5 4 4 2 3 2 2 4 4 3 4 10 13 11 11 5 8 4 7 9 15 20 5 6 2 4 0 1 1 5 5 5 6 6 6 6 7 7 7 7 6 6 9 9 7 6 6 9 9 10 12 13 12 10 9 12 11 14 14 12 11 12 12 12 12 12 12 13 12 13 13 13 11 12 11 10 9 9 9 9 8 9
2 1 7 9 6 3 8 6 4 2 1 2 4 5 6 8 7 9 6 2 8 12 14 15 22 11 11 5 4 7 5 3 3 4 5 6 5 5 7 8 7 8 8 7 8 9 8 5 6 9 11 11 12 11 9 10 11 11 12 11 13 14 11 11 10 12 12 12 13 13 14 13 13 13 13 13 11 12 11 10 10 9 10 9 8 8
4 2 6 9 11 11 11 12 14 9 6 4 2 6 7 8 11 6 11 7 14 9 19 18 15 15 19 3 3 5 6 6 6 8 7 7 8 10 6 5 8 9 10 10 10 8 8 10 9 6 8 9 9 11 11 11 11 11 10 12 11 10 10 12 10 11 12 12 14 13 14 14 13 14 14 13 11 12 11 11 10 10 8 9 9 8
2 0 7 12 12 13 12 11 5 4 1 3 6 10 11 9 9 11 8 10 13 14 18 15 16 21 21 23 23 22 19 17 19 12 5 6 6 5 5 7 10 11 10 10 10 10 9 7 7 10 10 11 10 10 11 11 12 11 11 10 10 11 11 11 11 11 12 12 13 12 14 14 14 13 13 13 12 11 11 11 11 11 11 10 10 10
3 4 7 12 17 17 17 19 18 18 19 14 10 8 8 11 10 12 12 16 14 16 21 10 18 18 21 22 28 29 25 20 19 20 16 12 12 9 8 10 13 10 7 6 7 9 11 12 10 10 12 11 12 11 10 10 11 12 12 13 11 10 11 10 12 12 12 12 13 13 14 13 13 13 13 11 11 12 12 11 11 11 10 10 10 9
5 8 10 11 16 16 15 17 17 20 21 20 19 19 18 12 11 13 14 19 19 18 20 13 18 22 23 23 27 29 26 17 14 16 16 14 13 13 8 6 8 8 6 6 9 10 10 11 11 11 12 13 12 11 11 10 9 8 8 8 10 11 13 11 11 12 13 12 13 13 13 12 11 10 11 11 11 11 12 11 10 9 9 9 8 7
2 11 10 15 17 16 16 17 17 19 19 20 20 21 20 20 18 15 20 23 24 22 21 24 26 31 26 22 23 25 22 18 17 17 19 21 22 21 13 10 14 11 7 9 11 12 12 13 12 12 12 12 12 12 10 9 10 11 12 12 11 12 11 12 13 13 13 14 13 12 12 12 11 12 12 12 12 12 11 10 10 10 10 9 9 8
9 7 10 13 14 18 22 24 22 23 22 24 24 21 19 18 20 24 25 22 19 21 24 26 26 25 20 25 26 25 22 22 24 26 26 24 24 23 16 14 14 11 8 7 9 13 13 12 12 12 12 13 13 14 13 13 12 11 10 10 11 12 11 12 12 13 14 14 12 12 12 13 13 13 14 12 11 9 11 11 9 9 9 8 9 9
10 8 8 10 12 17 16 24 25 25 24 25 23 22 22 25 26 25 23 23 19 20 22 20 18 18 23 26 21 20 22 24 27 28 25 21 24 20 16 11 9 11 12 13 12 11 10 10 11 12 13 13 13 13 11 11 11 11 13 12 13 12 11 13 13 13 13 12 12 13 14 13 13 13 12 11 11 11 10 10 10 10 9 9 8 7
8 4 7 9 16 17 15 20 23 22 18 18 21 26 35 32 27 23 24 24 23 24 21 18 21 22 22 16 19 21 23 24 25 23 22 25 21 19 14 7 8 10 14 15 12 9 9 10 11 11 12 11 12 12 12 13 12 13 13 13 13 11 13 14 13 13 13 12 13 14 13 13 13 12 12 12 12 11 11 11 10 10 10 10 8 7
10 12 12 8 10 9 13 19 12 12 18 18 17 30 28 27 25 27 26 29 32 24 20 22 24 21 19 19 23 26 28 28 25 23 21 16 18 21 14 8 8 12 16 14 11 8 10 9 9 10 11 12 13 14 12 13 16 15 13 12 11 14 13 13 12 13 13 13 13 13 13 13 13 13 12 11 11 11 11 11 11 9 8 8 7 7
14 13 13 8 8 8 10 8 10 20 19 11 16 11 13 19 24 28 30 30 29 27 28 27 26 25 25 24 24 26 27 29 28 25 18 14 15 15 18 18 17 14 15 15 13 10 9 9 8 9 9 9 11 9 7 9 9 7 10 12 13 12 13 13 14 13 13 14 13 13 13 14 14 14 13 12 12 12 12 12 11 9 8 7 8 8
12 13 9 7 9 7 6 8 13 14 1 3 7 12 14 18 20 19 23 24 28 30 31 28 24 24 24 26 26 25 26 28 24 16 14 18 18 17 14 16 20 18 15 14 14 14 11 9 10 10 11 8 7 7 9 11 10 12 12 11 14 13 13 13 13 13 13 14 14 14 14 15 14 14 13 13 12 12 12 9 8 10 8 7 6 5
20 14 10 10 10 13 10 14 22 7 7 5 5 6 12 15 13 18 22 25 28 28 23 22 23 24 25 26 26 26 25 19 14 15 17 20 18 15 13 17 19 15 14 16 14 13 11 9 7 10 7 6 8 8 10 8 10 11 11 12 11 13 12 12 13 14 15 14 15 14 14 15 15 14 14 13 13 12 9 9 8 7 7 7 7 7
20 19 14 15 10 14 16 14 13 10 16 14 13 14 18 21 23 26 21 24 6 11 14 21 23 26 27 25 26 26 20 15 16 17 20 21 18 15 17 17 11 10 12 14 13 8 8 9 7 6 7 7 7 9 8 10 11 12 12 12 11 12 13 14 15 15 15 15 15 14 14 15 16 16 16 15 16 15 10 8 6 8 7 8 8 7
21 22 20 19 10 11 15 13 13 14 17 7 17 19 22 22 24 20 15 21 5 14 16 22 24 22 22 21 21 16 10 13 15 14 14 16 16 16 16 13 9 11 13 14 14 14 12 9 8 6 5 6 8 7 8 10 12 12 12 12 12 13 14 16 15 15 16 15 14 14 14 15 15 16 17 16 12 9 11 10 9 8 7 6 6 6
21 16 12 15 12 12 14 14 15 8 14 12 13 13 19 20 17 6 15 10 11 24 22 23 23 21 17 14 11 9 10 14 15 15 13 12 12 11 7 9 11 10 10 12 10 9 8 4 4 4 6 9 11 6 9 10 12 12 12 13 11 13 15 17 17 13 10 11 13 13 13 13 15 15 15 15 13 10 7 7 7 8 8 6 6 6
11 12 15 22 17 19 20 16 12 11 3 7 14 11 14 7 1 11 20 11 9 7 10 16 19 15 13 12 8 8 5 8 12 14 15 15 16 14 10 7 7 9 10 10 11 6 4 5 8 10 12 10 7 9 9 10 10 12 11 11 12 15 18 13 10 11 12 11 12 12 13 12 14 16 12 13 14 12 9 6 8 8 7 7 6 6
8 6 6 10 13 14 15 15 18 14 7 4 3 13 6 1 7 14 10 10 13 14 15 16 15 16 14 12 9 7 8 11 11 12 14 14 13 13 13 12 11 10 9 7 10 6 3 1 3 5 4 1 6 7 9 10 12 11 10 11 15 19 8 9 11 11 12 13 13 13 13 13 11 13 14 13 13 14 10 6 7 7 7 5 6 8
6 8 7 12 9 10 11 9 8 10 6 10 12 8 1 10 4 10 10 10 10 11 14 13 11 12 14 12 13 12 13 14 12 11 11 12 12 12 11 9 9 8 8 7 8 4 2 4 5 5 4 1 3 5 7 9 11 9 9 14 18 8 9 10 11 12 12 13 13 13 13 13 15 13 12 16 14 15 12 8 8 8 7 8 7 7
9 10 5 6 1 8 10 12 6 4 5 10 17 6 10 11 8 7 9 10 9 11 12 12 12 12 13 13 15 15 14 14 16 15 14 12 12 13 12 10 10 9 9 6 2 2 1 4 6 7 4 4 5 6 7 11 10 9 11 17 5 10 9 11 11 12 13 13 13 13 12 13 12 12 14 17 11 10 11 10 8 7 6 6 7 6
3 5 6 7 7 3 5 8 8 4 5 7 6 9 11 10 7 8 9 8 10 10 9 9 12 15 15 14 16 14 15 13 15 16 15 14 14 13 13 12 9 8 8 7 7 4 3 7 9 7 4 4 6 6 8 8 13 10 14 8 9 10 12 12 13 13 13 14 13 13 12 11 11 12 13 14 11 11 10 10 9 8 7 7 7 6
14 5 1 5 3 11 13 14 5 8 14 18 19 10 9 6 8 8 10 10 9 7 8 10 12 14 17 15 14 16 16 16 18 18 18 18 17 16 14 13 12 9 6 6 6 5 6 6 6 6 7 6 7 8 7 8 8 13 12 6 8 10 12 13 14 14 14 13 12 13 14 15 12 11 10 9 5 6 7 11 10 8 8 6 6 6
6 10 7 6 11 13 9 8 16 17 18 21 19 14 1 3 5 6 9 10 13 15 15 10 10 12 14 15 13 14 17 18 19 18 18 16 16 16 16 16 16 14 12 10 10 7 5 6 8 9 9 10 8 9 10 12 11 10 5 10 10 11 13 14 15 14 13 14 13 13 14 16 13 12 8 9 7 7 7 7 8 8 8 7 7 6
15 5 19 10 14 11 12 16 19 18 17 13 11 8 4 7 6 7 7 10 13 14 13 14 14 12 10 11 12 14 15 15 15 15 15 15 15 14 15 15 16 16 14 9 8 7 7 8 9 11 10 12 11 9 9 10 12 9 10 11 13 13 14 15 15 16 15 15 13 13 14 13 13 15 8 8 8 10 9 7 8 9 10 10 10 10
15 14 16 8 15 16 19 15 10 13 13 11 5 1 9 14 14 13 10 12 13 13 13 12 8 10 11 11 12 12 12 13 12 11 12 13 14 13 14 15 16 15 13 12 8 6 8 9 10 11 12 13 7 8 10 11 9 9 12 12 14 15 16 15 13 12 13 13 12 13 12 12 13 13 11 8 5 4 6 9 11 9 8 6 6 8
7 11 13 13 13 14 13 15 15 15 16 18 17 13 12 13 14 13 12 10 9 10 11 13 13 11 10 12 12 11 11 12 13 13 13 13 13 15 15 16 14 13 13 11 9 7 8 10 11 12 12 13 7 8 10 11 10 9 10 12 13 15 17 15 14 14 14 13 13 12 13 12 12 12 13 12 9 10 9 9 12 9 9 9 14 15
11 12 9 9 9 13 13 17 14 17 19 16 18 17 14 8 11 12 12 12 12 11 11 13 15 15 12 10 10 12 14 15 18 16 16 14 15 15 15 17 17 17 15 14 14 13 10 11 11 10 12 12 7 9 10 10 10 11 12 13 15 16 17 16 15 13 13 13 14 15 15 14 13 12 10 8 9 8 13 11 9 14 16 15 16 15
Wind_Direction
140 177 191 212 234 227 216 213 227 239 246 260 269 271 267 269 274 269 270 209 199 193 218 223 236 241 254 252 253 257 257 253 250 246 245 243 247 249 245 237 237 231 233 187 188 182 188 187 180 170 166 167 168 170 167 168 174 170 169 166 172 171 165 162 162 166 162 161 159 155 172 176 175 174 171 174 175 174 171 155 146 149 158 151 156 162
198 210 216 229 239 235 231 231 233 238 237 242 251 261 270 262 269 265 284 146 222 192 242 227 237 243 251 255 256 257 256 256 249 253 253 257 255 256 249 244 237 237 176 157 169 179 181 180 173 164 166 163 170 178 171 175 178 174 170 175 171 171 171 173 173 170 175 177 177 171 178 166 174 172 175 177 184 174 168 153 153 153 167 159 160 164
211 220 228 236 247 257 258 258 256 262 271 277 271 275 286 269 273 282 278 139 275 169 264 270 268 264 263 263 262 251 246 251 252 250 252 253 261 261 256 247 242 205 180 170 178 172 181 175 172 168 173 179 178 177 179 176 175 174 173 176 173 176 176 177 174 174 179 175 174 171 168 168 165 180 163 161 167 163 160 159 158 162 165 162 168 164
242 231 240 250 254 255 261 243 255 275 268 258 259 264 253 260 270 289 144 234 196 203 232 222 266 265 266 262 259 255 252 248 247 252 254 249 252 257 256 246 231 202 173 179 177 179 176 173 174 172 178 179 175 179 179 178 180 178 178 177 176 179 179 177 176 177 175 168 162 159 151 161 157 166 162 159 160 163 155 165 164 167 166 168 169 164
230 224 201 230 235 236 244 238 240 246 256 229 229 242 257 250 240 232 257 187 215 231 252 313 283 266 242 256 256 253 244 247 249 252 253 255 251 252 258 263 216 195 181 179 178 177 171 175 184 184 181 174 181 184 185 182 181 183 180 178 177 179 181 179 174 172 164 155 151 138 117 98 97 98 131 133 157 167 166 156 170 179 169 169 167 164
248 241 147 205 163 225 228 246 225 221 264 255 216 211 236 247 261 265 278 327 341 295 181 174 304 258 212 222 240 255 230 223 232 232 245 248 254 254 249 244 216 196 177 177 183 183 182 183 179 180 181 185 188 191 191 184 180 177 178 177 178 180 181 180 175 171 169 170 163 155 152 158 159 167 168 183 180 175 179 183 167 165 171 168 164 163
247 173 185 212 208 217 219 236 219 177 256 271 245 207 240 252 252 264 279 358 274 243 314 215 193 292 158 257 244 252 195 215 234 215 234 247 252 252 243 228 201 193 182 184 179 175 176 183 178 186 188 192 192 195 181 179 180 179 179 180 180 181 181 179 177 173 172 173 177 179 179 177 178 179 195 181 174 175 175 162 169 171 167 169 165 167
188 147 142 172 212 229 236 250 229 211 251 264 102 357 77 303 260 249 233 202 254 317 267 161 145 277 288 248 219 226 203 217 226 228 234 242 247 255 262 219 195 194 186 180 182 183 185 181 184 189 193 190 195 183 177 182 182 184 183 180 182 180 181 181 175 180 180 179 180 184 188 186 189 189 181 177 177 170 165 167 169 163 166 167 166 165
187 182 188 209 201 211 225 231 232 181 203 236 281 23 67 62 61 67 190 259 257 337 270 158 159 251 263 268 189 168 197 218 220 220 232 241 239 248 255 244 193 190 188 178 179 183 185 187 190 188 189 193 182 181 184 185 186 183 181 180 179 183 181 182 179 182 185 184 184 186 185 191 197 183 171 167 167 163 163 160 159 159 161 163 165 167
358 170 225 202 161 225 222 57 77 195 218 254 160 69 86 71 64 193 222 221 306 268 262 155 177 220 272 261 230 204 197 210 216 220 229 229 236 238 245 235 198 188 182 187 188 186 187 186 185 185 178 177 188 186 182 182 181 182 180 183 182 188 183 181 181 184 186 186 182 188 192 192 186 176 168 163 166 159 155 155 159 157 159 165 167 170
182 184 164 154 208 216 106 83 81 26 92 151 134 99 53 208 198 275 152 151 0 251 259 179 195 179 271 282 185 155 210 201 209 229 230 237 250 251 247 203 193 186 182 183 187 184 175 174 168 166 175 180 178 180 181 183 185 183 185 186 190 190 183 182 184 184 189 187 190 193 191 191 186 179 168 160 161 154 154 158 163 166 167 164 168 165
205 93 129 246 68 87 117 65 30 236 6 133 107 153 355 307 35 15 305 125 185 267 262 177 185 186 231 299 330 195 186 190 190 199 207 216 237 241 231 225 192 181 179 169 164 170 156 151 163 166 173 175 178 177 184 186 184 187 187 188 193 191 189 186 184 186 189 190 194 194 191 192 189 180 177 173 170 171 169 167 167 164 159 170 167 167
244 230 208 52 270 143 146 143 11 33 91 165 122 101 146 260 57 281 79 246 204 244 264 177 172 232 231 239 91 243 187 202 197 199 203 206 224 234 225 221 184 169 158 164 164 161 164 167 170 178 177 173 179 184 187 186 185 186 187 189 193 199 191 189 184 189 189 190 195 194 193 193 187 187 182 178 174 173 171 168 164 166 173 168 168 173
268 237 189 199 35 221 141 196 189 315 210 162 165 167 136 250 227 260 242 219 264 257 259 182 186 223 263 261 203 237 223 197 203 211 209 203 207 222 220 197 160 157 159 164 166 170 174 175 178 181 180 181 184 186 185 184 185 188 191 192 197 202 192 188 186 189 190 196 196 194 193 191 187 189 185 183 176 175 172 169 170 173 174 174 174 168
288 296 212 138 237 174 188 207 203 199 153 196 180 145 197 181 179 253 220 239 239 254 262 224 94 239 100 244 180 210 218 200 196 208 217 214 212 232 187 143 134 141 159 162 168 175 180 183 180 183 186 184 185 185 184 185 190 187 194 195 200 198 196 190 191 188 194 196 195 194 193 189 189 188 186 185 178 171 169 170 168 170 167 166 168 168
223 245 247 177 356 152 185 217 210 86 53 204 172 173 318 228 182 232 243 260 284 335 298 199 216 220 227 24 205 209 212 218 204 205 208 214 229 225 137 162 171 172 168 171 172 178 185 184 182 185 189 189 185 185 186 189 189 192 199 198 200 201 195 192 190 195 195 195 192 192 191 191 186 185 179 176 172 171 169 168 167 166 163 159 153 155
333 261 76 132 19 158 196 25 202 149 223 221 130 198 209 86 175 257 305 277 292 301 262 229 273 262 304 264 233 228 212 222 219 216 208 211 226 226 184 193 190 184 177 178 178 183 184 181 191 194 190 188 187 187 193 193 191 196 194 194 198 200 197 196 196 194 192 191 189 196 191 185 185 184 182 179 174 167 163 159 160 159 160 151 150 152
223 256 9 172 220 316 232 306 328 14 129 96 210 237 12 15 117 158 232 338 232 240 275 269 260 285 308 289 137 194 205 209 205 205 202 207 223 225 211 212 203 194 191 185 187 190 186 188 192 192 194 194 193 194 196 198 198 199 195 194 194 193 199 202 193 191 190 191 194 190 190 190 187 184 180 174 171 165 158 159 155 151 153 162 155 148
211 263 240 291 30 309 321 62 339 349 57 153 193 321 128 244 268 242 116 254 266 258 270 278 274 271 256 258 281 226 199 206 211 205 201 209 223 226 226 226 223 192 166 176 187 187 193 196 193 193 199 201 201 203 201 197 192 195 202 202 196 197 203 198 191 190 191 191 193 191 190 187 183 180 177 173 166 163 166 165 162 160 156 144 147 146
123 240 238 327 68 37 9 127 200 176 317 148 28 335 192 82 222 150 193 202 171 263 294 281 291 270 254 246 257 216 200 196 196 196 199 208 215 222 219 222 211 181 189 193 197 200 196 196 198 196 196 197 202 199 195 192 190 198 200 194 202 204 197 195 194 190 191 193 186 187 182 186 183 178 175 172 167 169 170 166 159 155 153 159 151 154
262 156 251 50 305 326 268 181 192 168 195 228 232 264 254 198 232 100 297 200 198 223 224 271 289 275 76 235 204 189 188 192 187 197 204 208 218 219 213 210 206 190 190 203 202 204 205 205 203 204 205 207 202 194 187 187 195 200 189 198 199 197 195 196 199 188 194 182 187 181 185 183 178 177 171 166 169 166 166 161 159 160 157 146 161 154
219 171 238 133 309 209 249 171 192 196 196 193 189 212 204 177 192 215 251 221 229 202 231 245 253 272 239 56 100 144 188 171 187 194 212 220 225 222 203 213 199 205 224 211 203 204 209 209 205 209 202 186 182 197 199 202 191 188 197 200 196 196 197 198 194 193 187 184 183 184 183 180 175 172 169 168 167 166 164 163 162 159 154 161 160 154
190 172 244 226 210 241 253 246 241 279 341 300 197 231 204 204 196 202 238 226 240 227 254 234 261 263 275 94 115 169 191 184 191 188 200 219 231 231 218 212 220 216 210 209 214 213 207 203 202 201 194 192 198 200 199 191 192 198 199 192 194 195 202 197 195 188 180 181 182 183 178 171 174 171 172 169 170 168 165 163 160 157 157 157 158 157
61 189 233 251 275 304 306 339 358 352 271 298 285 257 155 209 208 216 231 219 235 207 222 239 238 259 278 72 58 90 358 5 269 153 157 207 205 201 211 223 224 226 233 230 226 226 215 213 207 181 191 205 206 203 200 201 204 201 193 194 191 201 202 191 186 184 180 181 181 176 171 176 172 171 174 175 173 169 164 160 159 156 155 155 153 156
251 251 215 267 270 283 282 309 280 22 21 220 235 232 227 242 234 246 272 58 251 229 245 244 252 260 275 140 161 144 152 175 186 228 187 208 235 228 225 227 220 221 227 229 227 227 228 226 196 199 201 205 210 212 208 200 199 197 197 189 196 202 192 187 180 179 183 178 175 175 176 176 173 175 176 175 171 169 162 160 156 158 158 153 156 157
217 202 172 228 236 245 243 228 248 271 214 222 252 269 255 229 238 258 248 229 247 233 237 244 264 259 260 210 203 209 205 231 234 228 239 216 226 233 231 235 228 226 225 222 229 237 233 223 215 213 215 217 216 210 206 203 200 199 194 198 196 188 184 188 178 181 177 177 176 178 178 176 175 178 177 173 169 167 164 159 159 159 159 157 156 153
187 174 222 231 236 243 242 256 261 119 78 175 234 218 231 239 238 236 253 256 246 247 244 246 256 264 271 277 271 267 261 263 270 257 215 250 255 252 231 226 229 230 227 226 226 229 236 243 219 217 219 218 214 211 207 202 201 197 195 195 189 189 184 181 178 178 179 179 179 175 179 178 180 177 175 174 169 165 163 164 162 161 162 161 159 160
163 213 232 248 244 245 247 254 265 273 273 264 251 238 224 228 227 222 224 242 245 263 257 244 256 261 262 269 271 270 265 263 267 277 273 263 267 258 226 227 239 242 244 238 235 236 233 232 225 221 221 219 222 215 212 207 200 195 192 192 185 181 180 179 179 179 178 176 179 180 180 180 176 175 174 171 166 167 165 162 162 162 158 153 157 157
176 233 229 250 254 257 262 265 261 264 265 268 272 278 271 246 230 234 237 240 239 242 259 264 263 264 260 253 262 267 271 271 268 272 276 276 272 269 261 231 240 236 235 227 235 234 231 234 230 224 223 226 225 219 212 202 196 190 192 184 181 181 184 175 173 176 178 179 182 183 177 171 171 170 167 168 165 164 165 163 160 153 150 150 151 151
139 235 233 228 246 249 252 252 255 258 263 264 262 262 264 270 269 257 252 245 243 252 257 256 253 255 260 266 263 267 276 283 283 283 284 283 278 273 259 251 262 257 209 226 234 234 232 232 233 228 227 230 224 223 211 199 194 192 188 188 183 180 179 166 178 177 180 183 183 175 170 169 168 168 167 168 168 166 161 157 154 150 148 149 149 132
193 223 196 234 243 243 241 245 242 240 240 251 253 250 254 264 263 256 257 262 261 253 251 253 256 263 267 263 262 270 280 287 284 278 275 276 275 272 269 263 265 270 265 241 226 233 233 233 234 234 231 231 226 221 211 201 197 191 186 182 179 180 176 170 175 181 181 183 176 171 167 168 170 166 171 167 160 157 155 153 150 149 147 146 138 132
189 253 200 229 234 238 227 239 236 238 237 243 250 257 255 246 249 251 250 246 248 255 254 256 257 255 256 261 273 275 270 267 268 270 271 269 266 270 267 265 267 273 270 261 248 240 236 232 230 228 229 230 229 222 210 199 191 181 190 182 181 177 167 174 177 180 182 177 171 171 172 171 166 166 166 160 160 158 154 150 151 152 149 146 144 149
188 184 209 216 235 235 228 230 235 238 242 242 236 241 242 241 238 248 253 254 246 243 250 253 250 247 254 267 274 271 267 259 259 260 264 266 273 272 269 255 248 256 264 266 259 236 225 228 230 228 230 229 229 225 211 195 182 191 190 181 180 160 171 177 178 178 177 175 173 174 171 166 165 164 164 165 158 156 152 151 151 148 148 154 150 148
198 211 228 198 244 239 225 239 233 231 220 223 212 223 226 238 240 241 245 246 246 238 239 236 247 252 256 254 253 257 261 261 254 252 252 262 277 281 283 259 238 248 261 264 254 236 235 229 233 235 228 223 223 221 211 184 190 195 180 170 158 167 174 172 178 176 177 173 174 171 167 165 164 165 164 156 152 152 152 154 155 147 146 142 151 162
203 211 232 209 244 240 232 234 242 229 235 222 227 223 228 236 240 241 243 244 252 254 252 251 249 248 249 249 249 250 253 258 260 258 264 263 259 265 275 281 274 255 252 260 264 255 247 245 242 240 239 232 224 219 183 191 187 148 151 162 167 171 170 178 175 178 176 174 172 167 167 167 167 164 159 156 153 154 155 152 131 141 150 155 160 160
217 211 217 224 225 252 224 205 240 246 148 280 206 223 219 233 239 251 258 252 252 249 248 249 249 250 249 250 250 249 250 253 262 275 273 265 259 258 259 262 262 260 253 250 252 257 255 240 231 234 235 224 202 193 182 186 168 162 170 163 168 171 176 175 177 177 173 176 175 172 170 167 165 161 157 156 155 153 145 142 151 152 150 146 145 145
223 222 206 248 194 233 219 218 237 271 280 147 158 207 201 220 221 223 246 242 232 240 244 251 251 250 249 250 251 254 256 264 276 274 264 258 257 252 243 246 252 255 255 260 256 251 250 251 232 231 224 194 189 178 190 168 163 160 154 165 172 170 173 173 179 182 180 179 175 173 169 167 163 159 158 157 156 158 149 151 148 143 141 142 150 155
213 217 200 227 215 204 235 238 245 218 239 229 215 212 216 225 227 234 239 258 206 248 231 243 244 243 246 247 249 252 258 267 260 256 254 257 256 257 259 260 251 247 254 262 266 257 252 256 249 226 194 193 192 192 169 162 159 158 162 169 166 169 177 180 189 185 181 181 176 171 167 167 163 161 162 163 166 164 155 147 131 144 149 148 150 156
222 218 221 217 218 207 229 230 227 237 244 176 224 220 229 232 234 245 258 261 155 239 236 244 244 240 241 243 250 258 256 249 252 255 259 256 261 259 258 267 258 239 242 247 249 254 252 244 228 201 180 175 196 194 164 158 157 156 171 171 174 177 180 192 189 184 184 180 170 167 166 165 165 164 164 167 161 142 146 151 149 146 138 141 138 139
223 221 224 234 228 224 238 236 242 219 253 205 214 216 232 233 239 243 254 263 152 222 226 240 247 252 257 257 255 247 237 254 253 255 257 262 268 278 282 257 251 251 249 250 252 242 243 209 134 157 179 197 209 160 158 157 163 172 172 181 172 182 195 197 193 181 167 160 163 162 163 163 164 164 163 160 154 149 123 127 128 142 139 131 119 127
214 224 214 225 219 226 226 249 252 260 236 165 206 219 228 237 165 225 242 254 216 223 237 246 254 265 280 294 316 309 335 323 324 327 327 320 317 310 305 298 266 258 257 256 258 237 181 181 188 199 204 209 166 157 162 160 164 181 181 172 179 200 204 188 163 161 161 155 155 159 161 161 163 159 158 154 151 149 135 127 133 127 128 131 132 134
266 257 248 241 238 233 234 235 238 250 237 218 231 222 219 10 235 246 278 339 360 14 11 21 21 20 23 21 11 351 328 331 346 354 351 345 334 327 327 327 326 319 313 337 5 15 1 353 275 265 260 197 150 159 163 166 179 185 173 176 200 210 167 152 159 150 151 156 156 156 157 157 155 156 154 149 141 137 124 116 120 127 123 119 129 140
219 208 202 207 229 240 238 274 271 246 41 345 279 270 30 238 324 355 356 18 41 32 21 7 18 10 17 354 352 341 340 338 342 342 338 333 336 333 334 340 342 330 313 317 319 358 36 322 300 293 314 4 158 162 175 173 184 187 184 197 211 157 146 151 148 150 151 152 154 157 156 156 154 154 151 134 136 128 134 130 124 120 123 131 132 134
317 263 263 229 132 252 221 225 229 43 320 358 27 359 1 318 325 355 11 10 23 36 20 359 358 3 359 355 346 336 337 334 332 334 333 331 329 328 327 328 329 327 321 310 324 315 200 250 259 254 227 177 166 173 171 183 189 193 194 217 146 140 140 144 146 147 150 154 156 152 154 154 151 148 149 138 136 123 126 132 125 124 132 129 134 141
72 68 300 302 311 297 331 340 319 357 328 329 15 335 321 326 27 23 27 21 17 10 14 359 341 337 336 339 328 325 318 318 314 312 313 313 313 312 311 314 310 309 306 293 284 250 210 237 252 257 228 198 179 184 188 189 192 195 215 205 135 152 151 147 149 151 157 157 156 154 149 145 147 149 146 136 142 133 129 127 134 129 137 137 145 147
317 335 230 306 288 314 297 260 278 326 326 330 325 329 315 336 26 36 16 355 356 348 346 330 321 319 315 318 318 316 309 307 306 305 304 305 302 299 298 298 296 289 278 276 277 250 236 244 244 244 240 222 201 196 191 199 192 200 218 130 151 148 151 150 153 159 160 157 155 153 148 144 145 147 139 138 125 112 127 139 143 132 137 142 145 153
305 323 327 315 310 320 294 326 311 315 317 311 305 295 255 17 336 352 346 345 331 328 317 306 295 297 298 295 295 295 299 303 301 298 297 296 296 299 301 301 297 294 292 289 276 259 244 230 238 242 237 238 214 199 198 195 201 205 143 162 152 155 154 159 160 159 158 159 156 152 156 154 154 153 148 145 134 130 125 124 125 127 134 147 150 151
289 336 303 303 297 267 276 288 295 296 283 272 287 316 319 327 334 330 331 312 313 310 311 310 311 301 292 293 293 291 290 290 289 291 291 294 296 298 299 298 296 298 293 276 271 251 228 228 233 241 239 241 232 200 201 202 207 183 157 158 163 158 158 162 168 166 167 162 158 161 164 161 152 151 143 153 150 141 139 143 143 144 155 161 163 158
276 305 278 318 292 296 289 274 269 293 301 297 298 78 329 313 319 323 331 331 314 312 314 315 310 308 310 305 301 298 297 294 291 292 296 298 300 300 300 300 299 297 298 299 288 248 231 235 236 239 241 243 227 179 200 210 205 180 170 164 160 161 164 168 164 159 158 160 159 164 168 162 162 157 148 133 130 102 139 148 150 142 146 160 157 158
272 256 272 286 285 290 290 315 345 326 315 313 311 317 322 328 322 332 341 343 347 340 340 336 333 331 330 319 318 312 307 305 308 314 311 309 306 309 309 308 305 303 301 294 286 273 251 239 236 240 237 243 215 185 201 207 197 181 174 163 165 164 166 164 160 161 167 167 168 165 165 164 161 158 155 151 144 139 127 135 137 145 143 145 160 157
257 268 276 275 284 283 306 310 311 298 293 292 307 326 342 15 21 357 340 333 331 332 328 324 320 317 313 306 302 306 304 304 303 305 302 301 298 297 297 298 299 298 295 294 292 287 271 255 241 236 243 245 218 202 210 205 192 178 176 170 169 171 170 161 164 169 168 170 177 175 171 164 158 161 156 153 143 139 133 136 149 150 152 152 158 161